Location: Newark
(41.0400°S, 62.7845°W)
Time: 16:29:26
(UTC+00:00)

N. Korean satellite - Pass Details

Date: 30 October 2021
Orbit: 447 x 495 km, 97.3° (Epoch: 30 November)

Event Time Altitude Azimuth Distance (km) Brightness Sun altitude
Rises 07:47:54 0° 46° (NE) 2,484 10.4 -13.1°
Reaches altitude 10° 07:50:19 10° 63° (ENE) 1,611 9.6 -12.8°
Maximum altitude 07:52:51 19° 111° (ESE) 1,151 9.6 -12.3°
Drops below altitude 10° 07:55:24 10° 158° (SSE) 1,618 10.0 -11.9°
Sets 07:57:50 0° 175° (S) 2,498 10.7 -11.5°
